Regional Weather Roundup
Issued by NWS

Home | Current Version | Previous Version | Graphics & Text | Print | Product List | Glossary On
Versions: 1 2 3 4 5 6 7 8 9 10 11 12 13 14 15 16 17 18 19 20 21 22 23 24 25 26 27 28 29 30 31 32 33 34 35 36 37 38 39 40 41 42 43 44 45 46 47 48 49 50
000
ASUS43 KLSX 281459
RWRMO

WEATHER SUMMARY FOR MISSOURI
NATIONAL WEATHER SERVICE SPRINGFIELD MO
1000 AM CDT FRI APR 28 2017

NOTE: "FAIR" INDICATES FEW OR NO CLOUDS BELOW 12,000 FEET WITH NO
       SIGNIFICANT WEATHER AND/OR OBSTRUCTIONS TO VISIBILITY.
       CURRENT SKY AND/OR WEATHER CONDITIONS ARE NOT AVAILABLE FOR
       CHILLICOTHE AND FARMINGTON.

MOZ001>031-035>038-043-044-053-054-281600-
...NORTHERN AND WESTERN MISSOURI...

CITY           SKY/WX    TMP DP  RH WIND       PRES   REMARKS
KANSAS CTY INT CLOUDY    53  51  93 E12       29.67S
KANSAS C DTWN  CLOUDY    55  53  93 E8        29.66S
LEE`S SUMMIT   CLOUDY    55  54  96 SE7       29.67F
ST JOSEPH      CLOUDY    49  49 100 MISG      29.68F
CHILLICOTHE      N/A     50  49  96 VRB6      29.74F
KIRKSVILLE     LGT RAIN  47  46  97 NE8       29.79R FOG

$$
MOZ066>068-077>081-088>096-101>105-281600-
...SOUTHWEST MISSOURI...

CITY           SKY/WX    TMP DP  RH WIND       PRES   REMARKS
SPRINGFIELD    LGT RAIN  58  55  90 SE16      29.67F
JOPLIN         LGT RAIN  58  56  93 SE6       29.67R FOG
BRANSON        CLOUDY    55  54  94 SE15      29.72F

$$
MOZ032>034-039>042-045>050-055>058-069>072-281600-
...CENTRAL MISSOURI...

CITY           SKY/WX    TMP DP  RH WIND       PRES   REMARKS
COLUMBIA       RAIN      54  53  97 SE10      29.76S FOG
JEFFERSON CITY LGT RAIN  58  53  84 E5        29.77R
ROLLA          RAIN      55  53  93 SE17G25   29.77F FOG
SEDALIA        LGT RAIN  57  57 100 MISG      29.71F
OSAGE BEACH    LGT RAIN  56  54  93 SE9       29.75S

$$
MOZ051-052-059>065-281600-
...EAST CENTRAL MISSOURI...

CITY           SKY/WX    TMP DP  RH WIND       PRES   REMARKS
ST LOUIS INTL  LGT RAIN  57  53  86 SE16      29.86S
SPIRIT OF STL  LGT RAIN  56  54  93 SE10      29.83F
ST CHARLES     LGT RAIN  56  54  93 SE12      29.84F

$$
MOZ072>076-082>087-097>100-106>115-281600-
...SOUTH CENTRAL AND SOUTHEAST MISSOURI...

CITY           SKY/WX    TMP DP  RH WIND       PRES   REMARKS
CAPE GIRARDEAU LGT RAIN  59  53  80 NE7       29.86R
FARMINGTON     CLOUDY    55  51  86 CALM      29.88R
POPLAR BLUFF   CLOUDY    61  56  83 NE7       29.83R
WEST PLAINS    CLOUDY    60  54  80 E10       29.78F

$$




USA.gov is the U.S. government's official web portal to all federal, state and local government web resources and services.